リニア彗星

C/2002 B2 ( LINEAR )

English version
Home page
Updated on September 28, 2002

---------------------------------------------------------------------

・ プロフィール

発見日 2002年1月23日
発見光度 18.7等
発見者 Lincoln Laboratory Near-Earth Asteroid Research project

・ 軌道要素

T 2002 Apr. 6.7711 TT                                   MPCM
q   3.842966             (2000.0)            P               Q
                   Peri.  257.0670      -0.8351433      +0.4066199
                   Node    54.3227      +0.4741214      +0.8735579
e   1.0            Incl.  152.8720      -0.2788271      +0.2675013
From 48 observations 2002 Jan. 23-Apr. 17.

・ 星図

・ 光度変化

        m1 = 10.0 + 5 logΔ + 10.0 log r

---------------------------------------------------------------------

軌道要素はMPCのEphemerides and Orbital Elementsに掲載されたものです。
星図は StellaNavigator Ver.2.0 for Windows (アストロアーツ 編著 / アスキー出版局刊) で作成したものです。
光度グラフはComet for Windowsで作成したものです。

---------------------------------------------------------------------

Copyright(C) Seiichi Yoshida (comet@aerith.net). All rights reserved.